Year,Month,Day,Hour,Minute,Value (Times are PST for temperature in C)
2009,02,21,00,00,-0.20
2009,02,21,00,01,-0.20
2009,02,21,00,02,-0.20
2009,02,21,00,03,-0.30
2009,02,21,00,04,-0.20
2009,02,21,00,05,-0.20
2009,02,21,00,06,-0.20
2009,02,21,00,07,-0.20
2009,02,21,00,08,-0.20
2009,02,21,00,09,-0.20
2009,02,21,00,10,-0.20
2009,02,21,00,11,-0.20
2009,02,21,00,12,-0.20
2009,02,21,00,13,-0.20
2009,02,21,00,14,-0.20
2009,02,21,00,15,-0.20
2009,02,21,00,16,-0.20
2009,02,21,00,17,-0.20
2009,02,21,00,18,-0.20
2009,02,21,00,19,-0.20
2009,02,21,00,20,-0.20
2009,02,21,00,21,-0.20
2009,02,21,00,22,-0.20
2009,02,21,00,23,-0.20
2009,02,21,00,24,-0.20
2009,02,21,00,25,-0.20
2009,02,21,00,26,-0.20
2009,02,21,00,27,-0.20
2009,02,21,00,28,-0.20
2009,02,21,00,29,-0.20
2009,02,21,00,30,-0.20
2009,02,21,00,31,-0.20
2009,02,21,00,32,-0.20
2009,02,21,00,33,-0.20
2009,02,21,00,34,-0.20
2009,02,21,00,35,-0.20
2009,02,21,00,36,-0.20
2009,02,21,00,37,-0.20
2009,02,21,00,38,-0.20
2009,02,21,00,39,-0.20
2009,02,21,00,40,-0.20
2009,02,21,00,41,-0.20
2009,02,21,00,42,-0.20
2009,02,21,00,43,-0.20
2009,02,21,00,44,-0.20
2009,02,21,00,45,-0.20
2009,02,21,00,46,-0.20
2009,02,21,00,47,-0.20
2009,02,21,00,48,-0.20
2009,02,21,00,49,-0.10
2009,02,21,00,50,-0.10
2009,02,21,00,51,-0.10
2009,02,21,00,52,-0.10
2009,02,21,00,53,-0.10
2009,02,21,00,54,-0.10
2009,02,21,00,55,-0.10
2009,02,21,00,56,-0.10
2009,02,21,00,57,-0.10
2009,02,21,00,58,-0.10
2009,02,21,00,59,-0.10
2009,02,21,01,00,-0.10
2009,02,21,01,01,-0.10
2009,02,21,01,02,-0.10
2009,02,21,01,03,-0.10
2009,02,21,01,04,-0.10
2009,02,21,01,05,-0.10
2009,02,21,01,06,-0.10
2009,02,21,01,07,-0.10
2009,02,21,01,08,-0.10
2009,02,21,01,09,-0.10
2009,02,21,01,10,-0.10
2009,02,21,01,11,-0.10
2009,02,21,01,12,-0.10
2009,02,21,01,13,-0.10
2009,02,21,01,14,-0.10
2009,02,21,01,15,-0.10
2009,02,21,01,16,-0.20
2009,02,21,01,17,-0.20
2009,02,21,01,18,-0.20
2009,02,21,01,19,-0.20
2009,02,21,01,20,-0.20
2009,02,21,01,21,-0.20
2009,02,21,01,22,-0.20
2009,02,21,01,23,-0.20
2009,02,21,01,24,-0.20
2009,02,21,01,25,-0.20
2009,02,21,01,26,-0.20
2009,02,21,01,27,-0.20
2009,02,21,01,28,-0.20
2009,02,21,01,29,-0.20
2009,02,21,01,30,-0.20
2009,02,21,01,31,-0.20
2009,02,21,01,32,-0.10
2009,02,21,01,33,-0.10
2009,02,21,01,34,-0.20
2009,02,21,01,35,-0.10
2009,02,21,01,36,-0.10
2009,02,21,01,37,-0.10
2009,02,21,01,38,-0.10
2009,02,21,01,39,-0.10
2009,02,21,01,40,-0.10
2009,02,21,01,41,-0.10
2009,02,21,01,42,-0.10
2009,02,21,01,43,-0.10
2009,02,21,01,44,-0.10
2009,02,21,01,45,-0.10
2009,02,21,01,46,-0.10
2009,02,21,01,47,-0.10
2009,02,21,01,48,-0.10
2009,02,21,01,49,-0.10
2009,02,21,01,50,-0.10
2009,02,21,01,51,-0.10
2009,02,21,01,52,-0.10
2009,02,21,01,53,-0.10
2009,02,21,01,54,-0.10
2009,02,21,01,55,-0.10
2009,02,21,01,56,-0.10
2009,02,21,01,57,-0.10
2009,02,21,01,58,-0.10
2009,02,21,01,59,-0.10
2009,02,21,02,00,-0.10
2009,02,21,02,01,-0.10
2009,02,21,02,02,-0.10
2009,02,21,02,03,-0.10
2009,02,21,02,04,-0.10
2009,02,21,02,05,-0.10
2009,02,21,02,06,-0.10
2009,02,21,02,07,-0.10
2009,02,21,02,08,-0.10
2009,02,21,02,09,0.00
2009,02,21,02,10,0.00
2009,02,21,02,11,0.00
2009,02,21,02,12,0.00
2009,02,21,02,13,-0.10
2009,02,21,02,14,-0.10
2009,02,21,02,15,-0.10
2009,02,21,02,16,-0.10
2009,02,21,02,17,-0.10
2009,02,21,02,18,-0.10
2009,02,21,02,19,-0.10
2009,02,21,02,20,-0.10
2009,02,21,02,21,-0.10
2009,02,21,02,22,-0.10
2009,02,21,02,23,-0.10
2009,02,21,02,24,-0.10
2009,02,21,02,25,-0.10
2009,02,21,02,26,-0.10
2009,02,21,02,27,-0.10
2009,02,21,02,28,-0.10
2009,02,21,02,29,-0.10
2009,02,21,02,30,-0.10
2009,02,21,02,31,-0.10
2009,02,21,02,32,-0.10
2009,02,21,02,33,-0.20
2009,02,21,02,34,-0.20
2009,02,21,02,35,-0.20
2009,02,21,02,36,-0.20
2009,02,21,02,37,-0.20
2009,02,21,02,38,-0.20
2009,02,21,02,39,-0.20
2009,02,21,02,40,-0.20
2009,02,21,02,41,-0.20
2009,02,21,02,42,-0.20
2009,02,21,02,43,-0.20
2009,02,21,02,44,-0.20
2009,02,21,02,45,-0.20
2009,02,21,02,46,-0.20
2009,02,21,02,47,-0.20
2009,02,21,02,48,-0.20
2009,02,21,02,49,-0.20
2009,02,21,02,50,-0.20
2009,02,21,02,51,-0.20
2009,02,21,02,52,-0.20
2009,02,21,02,53,-0.20
2009,02,21,02,54,-0.20
2009,02,21,02,55,-0.20
2009,02,21,02,56,-0.20
2009,02,21,02,57,-0.20
2009,02,21,02,58,-0.20
2009,02,21,02,59,-0.20
2009,02,21,03,00,-0.20
2009,02,21,03,01,-0.20
2009,02,21,03,02,-0.20
2009,02,21,03,03,-0.20
2009,02,21,03,04,-0.20
2009,02,21,03,05,-0.20
2009,02,21,03,06,-0.20
2009,02,21,03,07,-0.20
2009,02,21,03,08,-0.20
2009,02,21,03,09,-0.20
2009,02,21,03,10,-0.20
2009,02,21,03,11,-0.20
2009,02,21,03,12,-0.20
2009,02,21,03,13,-0.20
2009,02,21,03,14,-0.20
2009,02,21,03,15,-0.20
2009,02,21,03,16,-0.20
2009,02,21,03,17,-0.10
2009,02,21,03,18,-0.10
2009,02,21,03,19,-0.10
2009,02,21,03,20,-0.10
2009,02,21,03,21,-0.10
2009,02,21,03,22,-0.10
2009,02,21,03,23,-0.10
2009,02,21,03,24,-0.10
2009,02,21,03,25,-0.10
2009,02,21,03,26,-0.10
2009,02,21,03,27,-0.10
2009,02,21,03,28,-0.10
2009,02,21,03,29,0.00
2009,02,21,03,30,0.00
2009,02,21,03,31,0.10
2009,02,21,03,32,0.10
2009,02,21,03,33,0.20
2009,02,21,03,34,0.20
2009,02,21,03,35,0.20
2009,02,21,03,36,0.20
2009,02,21,03,37,0.20
2009,02,21,03,38,0.20
2009,02,21,03,39,0.20
2009,02,21,03,40,0.30
2009,02,21,03,41,0.30
2009,02,21,03,42,0.30
2009,02,21,03,43,0.30
2009,02,21,03,44,0.30
2009,02,21,03,45,0.30
2009,02,21,03,46,0.30
2009,02,21,03,47,0.30
2009,02,21,03,48,0.30
2009,02,21,03,49,0.40
2009,02,21,03,50,0.40
2009,02,21,03,51,0.40
2009,02,21,03,52,0.40
2009,02,21,03,53,0.40
2009,02,21,03,54,0.40
2009,02,21,03,55,0.40
2009,02,21,03,56,0.40
2009,02,21,03,57,0.40
2009,02,21,03,58,0.40
2009,02,21,03,59,0.40
2009,02,21,04,00,0.40
2009,02,21,04,01,0.40
2009,02,21,04,02,0.40
2009,02,21,04,03,0.40
2009,02,21,04,04,0.40
2009,02,21,04,05,0.40
2009,02,21,04,06,0.50
2009,02,21,04,07,0.50
2009,02,21,04,08,0.50
2009,02,21,04,09,0.50
2009,02,21,04,10,0.50
2009,02,21,04,11,0.60
2009,02,21,04,12,0.60
2009,02,21,04,13,0.60
2009,02,21,04,14,0.70
2009,02,21,04,15,0.70
2009,02,21,04,16,0.70
2009,02,21,04,17,0.70
2009,02,21,04,18,0.80
2009,02,21,04,19,0.80
2009,02,21,04,20,0.80
2009,02,21,04,21,0.90
2009,02,21,04,22,0.90
2009,02,21,04,23,0.90
2009,02,21,04,24,1.00
2009,02,21,04,25,1.00
2009,02,21,04,26,1.10
2009,02,21,04,27,1.10
2009,02,21,04,28,1.10
2009,02,21,04,29,1.20
2009,02,21,04,30,1.20
2009,02,21,04,31,1.20
2009,02,21,04,32,1.20
2009,02,21,04,33,1.20
2009,02,21,04,34,1.30
2009,02,21,04,35,1.30
2009,02,21,04,36,1.30
2009,02,21,04,37,1.30
2009,02,21,04,38,1.30
2009,02,21,04,39,1.30
2009,02,21,04,40,1.40
2009,02,21,04,41,1.40
2009,02,21,04,42,1.40
2009,02,21,04,43,1.40
2009,02,21,04,44,1.40
2009,02,21,04,45,1.40
2009,02,21,04,46,1.50
2009,02,21,04,47,1.50
2009,02,21,04,48,1.60
2009,02,21,04,49,1.60
2009,02,21,04,50,1.60
2009,02,21,04,51,1.60
2009,02,21,04,52,1.60
2009,02,21,04,53,1.60
2009,02,21,04,54,1.60
2009,02,21,04,55,1.50
2009,02,21,04,56,1.50
2009,02,21,04,57,1.50
2009,02,21,04,58,1.40
2009,02,21,04,59,1.40
2009,02,21,05,00,1.40
2009,02,21,05,01,1.40
2009,02,21,05,02,1.50
2009,02,21,05,03,1.50
2009,02,21,05,04,1.50
2009,02,21,05,05,1.50
2009,02,21,05,06,1.50
2009,02,21,05,07,1.50
2009,02,21,05,08,1.50
2009,02,21,05,09,1.50
2009,02,21,05,10,1.60
2009,02,21,05,11,1.60
2009,02,21,05,12,1.60
2009,02,21,05,13,1.60
2009,02,21,05,14,1.60
2009,02,21,05,15,1.60
2009,02,21,05,16,1.60
2009,02,21,05,17,1.70
2009,02,21,05,18,1.70
2009,02,21,05,19,1.70
2009,02,21,05,20,1.70
2009,02,21,05,21,1.70
2009,02,21,05,22,1.70
2009,02,21,05,23,1.70
2009,02,21,05,24,1.70
2009,02,21,05,25,1.70
2009,02,21,05,26,1.70
2009,02,21,05,27,1.70
2009,02,21,05,28,1.70
2009,02,21,05,29,1.60
2009,02,21,05,30,1.60
2009,02,21,05,31,1.60
2009,02,21,05,32,1.60
2009,02,21,05,33,1.60
2009,02,21,05,34,1.50
2009,02,21,05,35,1.50
2009,02,21,05,36,1.50
2009,02,21,05,37,1.50
2009,02,21,05,38,1.50
2009,02,21,05,39,1.40
2009,02,21,05,40,1.40
2009,02,21,05,41,1.40
2009,02,21,05,42,1.40
2009,02,21,05,43,1.40
2009,02,21,05,44,1.30
2009,02,21,05,45,1.30
2009,02,21,05,46,1.30
2009,02,21,05,47,1.30
2009,02,21,05,48,1.30
2009,02,21,05,49,1.30
2009,02,21,05,50,1.30
2009,02,21,05,51,1.30
2009,02,21,05,52,1.30
2009,02,21,05,53,1.30
2009,02,21,05,54,1.30
2009,02,21,05,55,1.30
2009,02,21,05,56,1.30
2009,02,21,05,57,1.30
2009,02,21,05,58,1.30
2009,02,21,05,59,1.30
2009,02,21,06,00,1.30
2009,02,21,06,01,1.30
2009,02,21,06,02,1.30
2009,02,21,06,03,1.30
2009,02,21,06,04,1.30
2009,02,21,06,05,1.30
2009,02,21,06,06,1.30
2009,02,21,06,07,1.20
2009,02,21,06,08,1.20
2009,02,21,06,09,1.20
2009,02,21,06,10,1.20
2009,02,21,06,11,1.20
2009,02,21,06,12,1.20
2009,02,21,06,13,1.20
2009,02,21,06,14,1.20
2009,02,21,06,15,1.10
2009,02,21,06,16,1.10
2009,02,21,06,17,1.10
2009,02,21,06,18,1.10
2009,02,21,06,19,1.10
2009,02,21,06,20,1.10
2009,02,21,06,21,1.10
2009,02,21,06,22,1.10
2009,02,21,06,23,1.00
2009,02,21,06,24,1.00
2009,02,21,06,25,1.00
2009,02,21,06,26,1.00
2009,02,21,06,27,1.00
2009,02,21,06,28,1.00
2009,02,21,06,29,1.00
2009,02,21,06,30,1.00
2009,02,21,06,31,0.90
2009,02,21,06,32,0.90
2009,02,21,06,33,0.90
2009,02,21,06,34,0.90
2009,02,21,06,35,0.90
2009,02,21,06,36,0.90
2009,02,21,06,37,0.90
2009,02,21,06,38,0.90
2009,02,21,06,39,0.90
2009,02,21,06,40,0.90
2009,02,21,06,41,0.90
2009,02,21,06,42,0.90
2009,02,21,06,43,0.90
2009,02,21,06,44,0.90
2009,02,21,06,45,0.90
2009,02,21,06,46,0.90
2009,02,21,06,47,0.90
2009,02,21,06,48,0.80
2009,02,21,06,49,0.80
2009,02,21,06,50,0.80
2009,02,21,06,51,0.90
2009,02,21,06,52,0.90
2009,02,21,06,53,1.00
2009,02,21,06,54,1.00
2009,02,21,06,55,1.10
2009,02,21,06,56,1.20
2009,02,21,06,57,1.20
2009,02,21,06,58,1.30
2009,02,21,06,59,1.30
2009,02,21,07,00,1.30
2009,02,21,07,01,1.40
2009,02,21,07,02,1.50
2009,02,21,07,03,1.60
2009,02,21,07,04,1.60
2009,02,21,07,05,1.70
2009,02,21,07,06,1.70
2009,02,21,07,07,1.70
2009,02,21,07,08,1.80
2009,02,21,07,09,1.80
2009,02,21,07,10,1.80
2009,02,21,07,11,1.90
2009,02,21,07,12,1.90
2009,02,21,07,13,2.00
2009,02,21,07,14,2.00
2009,02,21,07,15,2.00
2009,02,21,07,16,2.10
2009,02,21,07,17,2.10
2009,02,21,07,18,2.10
2009,02,21,07,19,2.10
2009,02,21,07,20,2.10
2009,02,21,07,21,2.10
2009,02,21,07,22,2.10
2009,02,21,07,23,2.10
2009,02,21,07,24,2.10
2009,02,21,07,25,2.10
2009,02,21,07,26,2.10
2009,02,21,07,27,2.10
2009,02,21,07,28,2.10
2009,02,21,07,29,2.10
2009,02,21,07,30,2.00
2009,02,21,07,31,2.00
2009,02,21,07,32,2.00
2009,02,21,07,33,2.00
2009,02,21,07,34,1.90
2009,02,21,07,35,1.90
2009,02,21,07,36,1.90
2009,02,21,07,37,1.90
2009,02,21,07,38,1.90
2009,02,21,07,39,1.90
2009,02,21,07,40,1.90
2009,02,21,07,41,1.90
2009,02,21,07,42,1.90
2009,02,21,07,43,1.90
2009,02,21,07,44,1.90
2009,02,21,07,45,1.90
2009,02,21,07,46,1.90
2009,02,21,07,47,1.90
2009,02,21,07,48,1.90
2009,02,21,07,49,1.90
2009,02,21,07,50,1.90
2009,02,21,07,51,1.90
2009,02,21,07,52,1.90
2009,02,21,07,53,2.00
2009,02,21,07,54,2.00
2009,02,21,07,55,2.00
2009,02,21,07,56,2.00
2009,02,21,07,57,2.10
2009,02,21,07,58,2.10
2009,02,21,07,59,2.10
2009,02,21,08,00,2.20
2009,02,21,08,01,2.20
2009,02,21,08,02,2.30
2009,02,21,08,03,2.40
2009,02,21,08,04,2.40
2009,02,21,08,05,2.50
2009,02,21,08,06,2.50
2009,02,21,08,07,2.60
2009,02,21,08,08,2.70
2009,02,21,08,09,2.80
2009,02,21,08,10,2.90
2009,02,21,08,11,3.00
2009,02,21,08,12,3.00
2009,02,21,08,13,3.10
2009,02,21,08,14,3.20
2009,02,21,08,15,3.20
2009,02,21,08,16,3.20
2009,02,21,08,17,3.30
2009,02,21,08,18,3.30
2009,02,21,08,19,3.40
2009,02,21,08,20,3.40
2009,02,21,08,21,3.50
2009,02,21,08,22,3.50
2009,02,21,08,23,3.50
2009,02,21,08,24,3.60
2009,02,21,08,25,3.70
2009,02,21,08,26,3.80
2009,02,21,08,27,3.90
2009,02,21,08,28,4.10
2009,02,21,08,29,4.20
2009,02,21,08,30,4.30
2009,02,21,08,31,4.40
2009,02,21,08,32,4.50
2009,02,21,08,33,4.60
2009,02,21,08,34,4.70
2009,02,21,08,35,4.70
2009,02,21,08,36,4.80
2009,02,21,08,37,4.90
2009,02,21,08,38,4.90
2009,02,21,08,39,5.00
2009,02,21,08,40,5.10
2009,02,21,08,41,5.10
2009,02,21,08,42,5.10
2009,02,21,08,43,5.10
2009,02,21,08,44,5.20
2009,02,21,08,45,5.20
2009,02,21,08,46,5.20
2009,02,21,08,47,5.30
2009,02,21,08,48,5.30
2009,02,21,08,49,5.30
2009,02,21,08,50,5.40
2009,02,21,08,51,5.40
2009,02,21,08,52,5.40
2009,02,21,08,53,5.40
2009,02,21,08,54,5.40
2009,02,21,08,55,5.40
2009,02,21,08,56,5.40
2009,02,21,08,57,5.30
2009,02,21,08,58,5.40
2009,02,21,08,59,5.50
2009,02,21,09,00,5.60
2009,02,21,09,01,5.60
2009,02,21,09,02,5.70
2009,02,21,09,03,5.80
2009,02,21,09,04,5.90
2009,02,21,09,05,6.00
2009,02,21,09,06,6.10
2009,02,21,09,07,6.10
2009,02,21,09,08,6.20
2009,02,21,09,09,6.20
2009,02,21,09,10,6.30
2009,02,21,09,11,6.30
2009,02,21,09,12,6.30
2009,02,21,09,13,6.40
2009,02,21,09,14,6.40
2009,02,21,09,15,6.50
2009,02,21,09,16,6.50
2009,02,21,09,17,6.50
2009,02,21,09,18,6.50
2009,02,21,09,19,6.60
2009,02,21,09,20,6.60
2009,02,21,09,21,6.60
2009,02,21,09,22,6.60
2009,02,21,09,23,6.60
2009,02,21,09,24,6.60
2009,02,21,09,25,6.60
2009,02,21,09,26,6.60
2009,02,21,09,27,6.60
2009,02,21,09,28,6.60
2009,02,21,09,29,6.60
2009,02,21,09,30,6.60
2009,02,21,09,31,6.60
2009,02,21,09,32,6.50
2009,02,21,09,33,6.50
2009,02,21,09,34,6.50
2009,02,21,09,35,6.50
2009,02,21,09,36,6.50
2009,02,21,09,37,6.50
2009,02,21,09,38,6.50
2009,02,21,09,39,6.50
2009,02,21,09,40,6.50
2009,02,21,09,41,6.40
2009,02,21,09,42,6.40
2009,02,21,09,43,6.40
2009,02,21,09,44,6.40
2009,02,21,09,45,6.40
2009,02,21,09,46,6.40
2009,02,21,09,47,6.40
2009,02,21,09,48,6.40
2009,02,21,09,49,6.30
2009,02,21,09,50,6.30
2009,02,21,09,51,6.30
2009,02,21,09,52,6.30
2009,02,21,09,53,6.30
2009,02,21,09,54,6.20
2009,02,21,09,55,6.20
2009,02,21,09,56,6.20
2009,02,21,09,57,6.20
2009,02,21,09,58,6.20
2009,02,21,09,59,6.20
2009,02,21,10,00,6.20
2009,02,21,10,01,6.20
2009,02,21,10,02,6.20
2009,02,21,10,03,6.20
2009,02,21,10,04,6.30
2009,02,21,10,05,6.30
2009,02,21,10,06,6.30
2009,02,21,10,07,6.30
2009,02,21,10,08,6.30
2009,02,21,10,09,6.30
2009,02,21,10,10,6.30
2009,02,21,10,11,6.30
2009,02,21,10,12,6.40
2009,02,21,10,13,6.40
2009,02,21,10,14,6.40
2009,02,21,10,15,6.40
2009,02,21,10,16,6.50
2009,02,21,10,17,6.50
2009,02,21,10,18,6.60
2009,02,21,10,19,6.60
2009,02,21,10,20,6.60
2009,02,21,10,21,6.70
2009,02,21,10,22,6.70
2009,02,21,10,23,6.70
2009,02,21,10,24,6.80
2009,02,21,10,25,6.80
2009,02,21,10,26,6.90
2009,02,21,10,27,6.90
2009,02,21,10,28,7.00
2009,02,21,10,29,7.00
2009,02,21,10,30,7.10
2009,02,21,10,31,7.10
2009,02,21,10,32,7.20
2009,02,21,10,33,7.20
2009,02,21,10,34,7.20
2009,02,21,10,35,7.30
2009,02,21,10,36,7.30
2009,02,21,10,37,7.30
2009,02,21,10,38,7.40
2009,02,21,10,39,7.40
2009,02,21,10,40,7.40
2009,02,21,10,41,7.40
2009,02,21,10,42,7.40
2009,02,21,10,43,7.50
2009,02,21,10,44,7.50
2009,02,21,10,45,7.50
2009,02,21,10,46,7.50
2009,02,21,10,47,7.50
2009,02,21,10,48,7.50
2009,02,21,10,49,7.50
2009,02,21,10,50,7.60
2009,02,21,10,51,7.60
2009,02,21,10,52,7.60
2009,02,21,10,53,7.60
2009,02,21,10,54,7.60
2009,02,21,10,55,7.60
2009,02,21,10,56,7.60
2009,02,21,10,57,7.60
2009,02,21,10,58,7.60
2009,02,21,10,59,7.60
2009,02,21,11,00,7.60
2009,02,21,11,01,7.60
2009,02,21,11,02,7.60
2009,02,21,11,03,7.60
2009,02,21,11,04,7.60
2009,02,21,11,05,7.60
2009,02,21,11,06,7.60
2009,02,21,11,07,7.60
2009,02,21,11,08,7.60
2009,02,21,11,09,7.60
2009,02,21,11,10,7.60
2009,02,21,11,11,7.60
2009,02,21,11,12,7.60
2009,02,21,11,13,7.60
2009,02,21,11,14,7.60
2009,02,21,11,15,7.60
2009,02,21,11,16,7.60
2009,02,21,11,17,7.60
2009,02,21,11,18,7.60
2009,02,21,11,19,7.60
2009,02,21,11,20,7.60
2009,02,21,11,21,7.60
2009,02,21,11,22,7.60
2009,02,21,11,23,7.60
2009,02,21,11,24,7.60
2009,02,21,11,25,7.60
2009,02,21,11,26,7.60
2009,02,21,11,27,7.60
2009,02,21,11,28,7.60
2009,02,21,11,29,7.60
2009,02,21,11,30,7.60
2009,02,21,11,31,7.60
2009,02,21,11,32,7.70
2009,02,21,11,33,7.70
2009,02,21,11,34,7.70
2009,02,21,11,35,7.70
2009,02,21,11,36,7.70
2009,02,21,11,37,7.70
2009,02,21,11,38,7.70
2009,02,21,11,39,7.70
2009,02,21,11,40,7.70
2009,02,21,11,41,7.80
2009,02,21,11,42,7.80
2009,02,21,11,43,7.80
2009,02,21,11,44,7.80
2009,02,21,11,45,7.80
2009,02,21,11,46,7.80
2009,02,21,11,47,7.80
2009,02,21,11,48,7.80
2009,02,21,11,49,7.80
2009,02,21,11,50,7.90
2009,02,21,11,51,7.90
2009,02,21,11,52,7.90
2009,02,21,11,53,7.90
2009,02,21,11,54,7.90
2009,02,21,11,55,7.90
2009,02,21,11,56,8.00
2009,02,21,11,57,8.00
2009,02,21,11,58,8.10
2009,02,21,11,59,8.10
2009,02,21,12,00,8.10
2009,02,21,12,01,8.10
2009,02,21,12,02,8.20
2009,02,21,12,03,8.20
2009,02,21,12,04,8.20
2009,02,21,12,05,8.20
2009,02,21,12,06,8.20
2009,02,21,12,07,8.20
2009,02,21,12,08,8.20
2009,02,21,12,09,8.20
2009,02,21,12,10,8.30
2009,02,21,12,11,8.30
2009,02,21,12,12,8.20
2009,02,21,12,13,8.20
2009,02,21,12,14,8.20
2009,02,21,12,15,8.20
2009,02,21,12,16,8.20
2009,02,21,12,17,8.20
2009,02,21,12,18,8.20
2009,02,21,12,19,8.30
2009,02,21,12,20,8.30
2009,02,21,12,21,8.30
2009,02,21,12,22,8.30
2009,02,21,12,23,8.30
2009,02,21,12,24,8.30
2009,02,21,12,25,8.30
2009,02,21,12,26,8.30
2009,02,21,12,27,8.40
2009,02,21,12,28,8.40
2009,02,21,12,29,8.40
2009,02,21,12,30,8.40
2009,02,21,12,31,8.40
2009,02,21,12,32,8.40
2009,02,21,12,33,8.40
2009,02,21,12,34,8.40
2009,02,21,12,35,8.40
2009,02,21,12,36,8.40
2009,02,21,12,37,8.40
2009,02,21,12,38,8.40
2009,02,21,12,39,8.40
2009,02,21,12,40,8.40
2009,02,21,12,41,8.40
2009,02,21,12,42,8.40
2009,02,21,12,43,8.40
2009,02,21,12,44,8.40
2009,02,21,12,45,8.40
2009,02,21,12,46,8.40
2009,02,21,12,47,8.40
2009,02,21,12,48,8.40
2009,02,21,12,49,8.40
2009,02,21,12,50,8.40
2009,02,21,12,51,8.30
2009,02,21,12,52,8.30
2009,02,21,12,53,8.30
2009,02,21,12,54,8.40
2009,02,21,12,55,8.40
2009,02,21,12,56,8.40
2009,02,21,12,57,8.40
2009,02,21,12,58,8.40
2009,02,21,12,59,8.40
2009,02,21,13,00,8.40
2009,02,21,13,01,8.40
2009,02,21,13,02,8.40
2009,02,21,13,03,8.40
2009,02,21,13,04,8.40
2009,02,21,13,05,8.40
2009,02,21,13,06,8.40
2009,02,21,13,07,8.40
2009,02,21,13,08,8.40
2009,02,21,13,09,8.50
2009,02,21,13,10,8.50
2009,02,21,13,11,8.50
2009,02,21,13,12,8.50
2009,02,21,13,13,8.50
2009,02,21,13,14,8.50
2009,02,21,13,15,8.60
2009,02,21,13,16,8.60
2009,02,21,13,17,8.60
2009,02,21,13,18,8.60
2009,02,21,13,19,8.60
2009,02,21,13,20,8.60
2009,02,21,13,21,8.60
2009,02,21,13,22,8.60
2009,02,21,13,23,8.70
2009,02,21,13,24,8.70
2009,02,21,13,25,8.70
2009,02,21,13,26,8.70
2009,02,21,13,27,8.70
2009,02,21,13,28,8.70
2009,02,21,13,29,8.70
2009,02,21,13,30,8.70
2009,02,21,13,31,8.60
2009,02,21,13,32,8.60
2009,02,21,13,33,8.60
2009,02,21,13,34,8.60
2009,02,21,13,35,8.60
2009,02,21,13,36,8.60
2009,02,21,13,37,8.60
2009,02,21,13,38,8.60
2009,02,21,13,39,8.60
2009,02,21,13,40,8.50
2009,02,21,13,41,8.50
2009,02,21,13,42,8.50
2009,02,21,13,43,8.50
2009,02,21,13,44,8.50
2009,02,21,13,45,8.40
2009,02,21,13,46,8.50
2009,02,21,13,47,8.40
2009,02,21,13,48,8.40
2009,02,21,13,49,8.40
2009,02,21,13,50,8.40
2009,02,21,13,51,8.40
2009,02,21,13,52,8.40
2009,02,21,13,53,8.40
2009,02,21,13,54,8.40
2009,02,21,13,55,8.50
2009,02,21,13,56,8.50
2009,02,21,13,57,8.50
2009,02,21,13,58,8.50
2009,02,21,13,59,8.60
2009,02,21,14,00,8.60
2009,02,21,14,01,8.60
2009,02,21,14,02,8.60
2009,02,21,14,03,8.60
2009,02,21,14,04,8.60
2009,02,21,14,05,8.70
2009,02,21,14,06,8.70
2009,02,21,14,07,8.70
2009,02,21,14,08,8.70
2009,02,21,14,09,8.70
2009,02,21,14,10,8.70
2009,02,21,14,11,8.70
2009,02,21,14,12,8.70
2009,02,21,14,13,8.70
2009,02,21,14,14,8.70
2009,02,21,14,15,8.70
2009,02,21,14,16,8.70
2009,02,21,14,17,8.80
2009,02,21,14,18,8.80
2009,02,21,14,19,8.80
2009,02,21,14,20,8.80
2009,02,21,14,21,8.80
2009,02,21,14,22,8.90
2009,02,21,14,23,8.90
2009,02,21,14,24,8.90
2009,02,21,14,25,9.00
2009,02,21,14,26,9.00
2009,02,21,14,27,9.10
2009,02,21,14,28,9.10
2009,02,21,14,29,9.20
2009,02,21,14,30,9.20
2009,02,21,14,31,9.20
2009,02,21,14,32,9.30
2009,02,21,14,33,9.30
2009,02,21,14,34,9.30
2009,02,21,14,35,9.40
2009,02,21,14,36,9.40
2009,02,21,14,37,9.40
2009,02,21,14,38,9.40
2009,02,21,14,39,9.40
2009,02,21,14,40,9.40
2009,02,21,14,41,9.40
2009,02,21,14,42,9.40
2009,02,21,14,43,9.40
2009,02,21,14,44,9.40
2009,02,21,14,45,9.40
2009,02,21,14,46,9.40
2009,02,21,14,47,9.40
2009,02,21,14,48,9.40
2009,02,21,14,49,9.40
2009,02,21,14,50,9.40
2009,02,21,14,51,9.40
2009,02,21,14,52,9.40
2009,02,21,14,53,9.40
2009,02,21,14,54,9.40
2009,02,21,14,55,9.40
2009,02,21,14,56,9.40
2009,02,21,14,57,9.40
2009,02,21,14,58,9.30
2009,02,21,14,59,9.30
2009,02,21,15,00,9.30
2009,02,21,15,01,9.30
2009,02,21,15,02,9.30
2009,02,21,15,03,9.30
2009,02,21,15,04,9.30
2009,02,21,15,05,9.30
2009,02,21,15,06,9.20
2009,02,21,15,07,9.30
2009,02,21,15,08,9.20
2009,02,21,15,09,9.20
2009,02,21,15,10,9.20
2009,02,21,15,11,9.20
2009,02,21,15,12,9.20
2009,02,21,15,13,9.20
2009,02,21,15,14,9.20
2009,02,21,15,15,9.20
2009,02,21,15,16,9.20
2009,02,21,15,17,9.10
2009,02,21,15,18,9.10
2009,02,21,15,19,9.10
2009,02,21,15,20,9.10
2009,02,21,15,21,9.10
2009,02,21,15,22,9.10
2009,02,21,15,23,9.10
2009,02,21,15,24,9.00
2009,02,21,15,25,9.00
2009,02,21,15,26,9.00
2009,02,21,15,27,9.00
2009,02,21,15,28,9.00
2009,02,21,15,29,9.00
2009,02,21,15,30,9.00
2009,02,21,15,31,8.90
2009,02,21,15,32,8.90
2009,02,21,15,33,8.90
2009,02,21,15,34,8.90
2009,02,21,15,35,8.90
2009,02,21,15,36,8.90
2009,02,21,15,37,8.90
2009,02,21,15,38,8.90
2009,02,21,15,39,8.90
2009,02,21,15,40,8.90
2009,02,21,15,41,8.90
2009,02,21,15,42,8.90
2009,02,21,15,43,8.90
2009,02,21,15,44,8.90
2009,02,21,15,45,8.90
2009,02,21,15,46,8.90
2009,02,21,15,47,8.90
2009,02,21,15,48,8.90
2009,02,21,15,49,8.90
2009,02,21,15,50,8.90
2009,02,21,15,51,8.90
2009,02,21,15,52,8.90
2009,02,21,15,53,8.90
2009,02,21,15,54,8.90
2009,02,21,15,55,8.90
2009,02,21,15,56,8.90
2009,02,21,15,57,8.90
2009,02,21,15,58,8.90
2009,02,21,15,59,8.90
2009,02,21,16,00,8.80
2009,02,21,16,01,8.80
2009,02,21,16,02,8.80
2009,02,21,16,03,8.80
2009,02,21,16,04,8.80
2009,02,21,16,05,8.80
2009,02,21,16,06,8.80
2009,02,21,16,07,8.80
2009,02,21,16,08,8.80
2009,02,21,16,09,8.80
2009,02,21,16,10,8.70
2009,02,21,16,11,8.70
2009,02,21,16,12,8.70
2009,02,21,16,13,8.70
2009,02,21,16,14,8.70
2009,02,21,16,15,8.70
2009,02,21,16,16,8.70
2009,02,21,16,17,8.70
2009,02,21,16,18,8.70
2009,02,21,16,19,8.70
2009,02,21,16,20,8.70
2009,02,21,16,21,8.70
2009,02,21,16,22,8.70
2009,02,21,16,23,8.70
2009,02,21,16,24,8.70
2009,02,21,16,25,8.70
2009,02,21,16,26,8.70
2009,02,21,16,27,8.70
2009,02,21,16,28,8.70
2009,02,21,16,29,8.70
2009,02,21,16,30,8.70
2009,02,21,16,31,8.60
2009,02,21,16,32,8.60
2009,02,21,16,33,8.60
2009,02,21,16,34,8.60
2009,02,21,16,35,8.60
2009,02,21,16,36,8.60
2009,02,21,16,37,8.60
2009,02,21,16,38,8.60
2009,02,21,16,39,8.60
2009,02,21,16,40,8.60
2009,02,21,16,41,8.60
2009,02,21,16,42,8.50
2009,02,21,16,43,8.50
2009,02,21,16,44,8.50
2009,02,21,16,45,8.40
2009,02,21,16,46,8.40
2009,02,21,16,47,8.40
2009,02,21,16,48,8.40
2009,02,21,16,49,8.40
2009,02,21,16,50,8.30
2009,02,21,16,51,8.30
2009,02,21,16,52,8.30
2009,02,21,16,53,8.30
2009,02,21,16,54,8.30
2009,02,21,16,55,8.30
2009,02,21,16,56,8.30
2009,02,21,16,57,8.20
2009,02,21,16,58,8.20
2009,02,21,16,59,8.20
2009,02,21,17,00,8.20
2009,02,21,17,01,8.20
2009,02,21,17,02,8.20
2009,02,21,17,03,8.20
2009,02,21,17,04,8.20
2009,02,21,17,05,8.20
2009,02,21,17,06,8.20
2009,02,21,17,07,8.20
2009,02,21,17,08,8.20
2009,02,21,17,09,8.20
2009,02,21,17,10,8.20
2009,02,21,17,11,8.20
2009,02,21,17,12,8.20
2009,02,21,17,13,8.10
2009,02,21,17,14,8.10
2009,02,21,17,15,8.10
2009,02,21,17,16,8.00
2009,02,21,17,17,8.00
2009,02,21,17,18,7.90
2009,02,21,17,19,7.90
2009,02,21,17,20,7.80
2009,02,21,17,21,7.80
2009,02,21,17,22,7.80
2009,02,21,17,23,7.70
2009,02,21,17,24,7.70
2009,02,21,17,25,7.70
2009,02,21,17,26,7.60
2009,02,21,17,27,7.60
2009,02,21,17,28,7.60
2009,02,21,17,29,7.50
2009,02,21,17,30,7.50
2009,02,21,17,31,7.50
2009,02,21,17,32,7.40
2009,02,21,17,33,7.40
2009,02,21,17,34,7.40
2009,02,21,17,35,7.40
2009,02,21,17,36,7.30
2009,02,21,17,37,7.30
2009,02,21,17,38,7.30
2009,02,21,17,39,7.30
2009,02,21,17,40,7.30
2009,02,21,17,41,7.30
2009,02,21,17,42,7.30
2009,02,21,17,43,7.30
2009,02,21,17,44,7.30
2009,02,21,17,45,7.20
2009,02,21,17,46,7.20
2009,02,21,17,47,7.20
2009,02,21,17,48,7.20
2009,02,21,17,49,7.20
2009,02,21,17,50,7.20
2009,02,21,17,51,7.20
2009,02,21,17,52,7.20
2009,02,21,17,53,7.20
2009,02,21,17,54,7.20
2009,02,21,17,55,7.20
2009,02,21,17,56,7.10
2009,02,21,17,57,7.10